Weather Service Report


878 
ASUS43 KTOP 250108
RWRKS 

WEATHER ROUNDUP FOR KANSAS
NATIONAL WEATHER SERVICE GOODLAND KS
800 PM CDT WED MAY 24 2017

NOTE:  "FAIR" INDICATES FEW OR NO CLOUDS BELOW 12,000 FEET WITH NO
SIGNIFICANT WEATHER AND/OR OBSTRUCTIONS TO VISIBILITY.

KSZ001>006-013>018-027>032-041>047-250200-
NORTHWEST KANSAS
  
CITY           SKY/WX    TMP DP  RH WIND       PRES   REMARKS
GOODLAND       SUNNY     73  46  38 S13       29.58F                  
HAYS           CLEAR     66  45  46 SE9       29.65S                  
HILL CITY      CLEAR     69  42  37 SE10      29.63S                  
RUSSELL        CLEAR     64  47  53 SE7       29.64F                  
$$

KSZ061>065-074>080-084>089-250200-
SOUTHWEST KANSAS
  
CITY           SKY/WX    TMP DP  RH WIND       PRES   REMARKS
DODGE CITY     CLEAR     68  46  45 SE13      29.65F                  
ELKHART          N/A     77  41  27 S12         N/A                   
GARDEN CITY    CLEAR     72  43  35 S12       29.63F                  
GREAT BEND     CLEAR     66  44  45 SE8       29.66F                  
LIBERAL        CLEAR     75  48  38 SE10      29.63F                  
PRATT          CLEAR     64  40  41 E6        29.67F                  
$$

KSZ066>073-081>083-090>101-250200-
SOUTHEAST KANSAS
  
CITY           SKY/WX    TMP DP  RH WIND       PRES   REMARKS
CHANUTE        CLEAR     65  46  50 NW7       29.69S                  
COFFEYVILLE    CLEAR     66  47  50 NW8       29.69F                  
HUTCHINSON     CLEAR     64  45  49 SE5       29.68F                  
MEDICINE LODGE   N/A     68  43  40 SE6       29.67S                  
NEWTON         CLEAR     62  44  51 NW3       29.71S                  
PARSONS        CLEAR     64  47  53 NW5       29.70S                  
WICHITA INTL   PTCLDY    64  46  52 CALM      29.69F                  
WICHITA JABRA  CLEAR     64  43  46 CALM      29.70S                  
WICHITA MCCONL CLEAR     65  42  43 NE3       29.70S                  
WINFIELD       CLEAR     66  43  43 CALM      29.71S                  
$$

KSZ007>012-019>026-033>040-048>060-102>105-250200-
NORTHEAST KANSAS
  
CITY           SKY/WX    TMP DP  RH WIND       PRES   REMARKS
CONCORDIA      CLEAR     62  49  62 S5        29.68F                  
EMPORIA        PTCLDY    64  47  53 NW6       29.69S                  
LAWRENCE       CLEAR     64  50  60 N3        29.68S                  
MANHATTAN      CLEAR     65  47  52 CALM      29.68F                  
MARYSVILLE     CLEAR     64  45  48 CALM      29.68S                  
OLATHE IND     CLEAR     61  49  64 N5        29.68S                  
OLATHE EXE     CLEAR     63  48  58 N6        29.68R                  
SALINA         CLEAR     67  43  41 CALM      29.69S                  
TOPEKA BILLARD CLEAR     67  48  50 CALM      29.67F                  
TOPEKA FORBES  MOCLDY    65  48  54 NW7       29.67F                  
$$
  

Return to Home page


Western Regional Climate Center, wrcc@dri.edu